Weather History for Fallon NAS, NV

Change the Weather History Date:

Friday, August 23, 2013

  Actual Average Record
Temperature  
Mean Temperature 70 °F -  
Max Temperature 89 °F 87 °F 100 °F (1969)
Min Temperature 53 °F 49 °F 33 °F (1960)
Cooling Degree Days 5    
Growing Degree Days 20 (Base 50)    
Moisture  
Dew Point 34 °F    
Average Humidity 28    
Maximum Humidity 54    
Minimum Humidity 11    
Precipitation  
Precipitation 0.00 in - - ()
Sea Level Pressure  
Sea Level Pressure 29.87 in    
Wind  
Wind Speed 4 mph (WNW)    
Max Wind Speed 12 mph    
Max Gust Speed -    
Visibility 3 miles    
Events      
Averages and records for this station are not official NWS values.
T = Trace of Precipitation, MM = Missing Value Source: NWS Daily Summary

Daily Weather History Graph

Daily Weather History Graph

Search for Another Location

Airport:

Trip Planner

Search our weather history database for the weather conditions in past years. The results will help you decide how hot, cold, wet, or windy it might be!

Date:

Astronomy

Aug. 23, 2013 Rise Set
Actual Time 6:15 AM PDT 7:38 PM PDT
Civil Twilight 5:47 AM PDT 8:06 PM PDT
Nautical Twilight 5:13 AM PDT 8:40 PM PDT
Astronomical Twilight 4:37 AM PDT 9:15 PM PDT
Moon 9:01 PM PDT (8/23) 9:14 AM PDT (8/23)
Length of Visible Light 14h 19m
Length of Day
13h 23m
Waning Gibbous, 91% of the Moon is Illuminated
Aug 23
Waning Gibbous
Aug 28
Last Quarter
Sep 5
New
Sep 12
First Quarter
Sep 19
Full

Hourly Weather History & Observations

Time (PDT) Temp. Dew Point Humidity Pressure Visibility Wind Dir Wind Speed Gust Speed Precip Events Conditions
12:56 AM 64.9 °F 37.0 °F 36% 29.91 in 3.0 mi Calm Calm - N/A   Haze
1:56 AM 64.0 °F 37.9 °F 38% 29.91 in 4.0 mi WNW 3.5 mph - N/A   Haze
2:56 AM 63.0 °F 37.0 °F 38% 29.91 in 4.0 mi West 8.1 mph - N/A   Haze
3:56 AM 63.0 °F 36.0 °F 37% 29.90 in 6.0 mi West 6.9 mph - N/A   Haze
4:56 AM 55.9 °F 36.0 °F 47% 29.90 in 5.0 mi SE 5.8 mph - N/A   Haze
5:56 AM 55.0 °F 37.0 °F 51% 29.91 in 3.0 mi South 4.6 mph - N/A   Haze
6:09 AM 55.4 °F 37.4 °F 51% 29.99 in 2.5 mi SSW 3.5 mph - N/A   Haze
6:18 AM 55.4 °F 37.4 °F 51% 29.99 in 2.5 mi SSW 4.6 mph - N/A   Smoke
6:56 AM 53.6 °F 37.4 °F 54% 29.91 in 1.5 mi SSW 3.5 mph - N/A   Smoke
7:49 AM 60.8 °F 37.4 °F 42% 30.00 in 3.0 mi SSW 3.5 mph - N/A   Smoke
7:56 AM 60.8 °F 37.4 °F 42% 29.92 in 3.0 mi Calm Calm - N/A   Smoke
8:56 AM 68.0 °F 37.4 °F 33% 29.91 in 2.0 mi West 4.6 mph - N/A   Smoke
9:56 AM 73.4 °F 39.2 °F 29% 29.91 in 2.0 mi WNW 5.8 mph - N/A   Smoke
10:56 AM 78.8 °F 37.4 °F 23% 29.91 in 5.0 mi NE 4.6 mph - N/A   Smoke
11:56 AM 82.4 °F 35.6 °F 19% 29.89 in 6.0 mi North 6.9 mph - N/A   Smoke
12:56 PM 82.4 °F 33.8 °F 17% 29.87 in 4.0 mi Variable 3.5 mph - N/A   Smoke
1:48 PM 86.0 °F 30.2 °F 13% 29.93 in 2.5 mi Variable 6.9 mph - N/A   Smoke
1:56 PM 84.2 °F 30.2 °F 14% 29.85 in 2.5 mi Calm Calm - N/A   Smoke
2:56 PM 87.8 °F 30.2 °F 13% 29.82 in 2.0 mi ENE 8.1 mph - N/A   Smoke
3:56 PM 87.8 °F 26.6 °F 11% 29.80 in 2.0 mi WNW 8.1 mph - N/A   Smoke
4:56 PM 87.8 °F 26.6 °F 11% 29.79 in 2.0 mi NNW 4.6 mph - N/A   Smoke
5:03 PM 87.8 °F 26.6 °F 11% 29.86 in 3.0 mi NNW 4.6 mph - N/A   Smoke
5:56 PM 87.8 °F 28.4 °F 12% 29.78 in 3.0 mi NNE 5.8 mph - N/A   Smoke
6:56 PM 84.2 °F 30.2 °F 14% 29.77 in 3.0 mi North 3.5 mph - N/A   Smoke
7:27 PM 80.6 °F 30.2 °F 16% 29.84 in 2.5 mi NNW 3.5 mph - N/A   Smoke
7:56 PM 77.0 °F 30.2 °F 18% 29.78 in 2.5 mi WNW 11.5 mph - N/A   Smoke
8:56 PM 75.2 °F 32.0 °F 21% 29.81 in 3.0 mi WNW 8.1 mph - N/A   Smoke
9:56 PM 73.4 °F 32.0 °F 22% 29.81 in 4.0 mi WNW 5.8 mph - N/A   Smoke
10:56 PM 66.0 °F 37.0 °F 34% 29.82 in 3.0 mi SW 5.8 mph - N/A   Haze
11:56 PM 63.0 °F 33.1 °F 33% 29.83 in 3.0 mi Calm Calm - N/A   Haze